Lid_Strength_Index
3 3 2 2 2 1 1 2 2 2 2 1 1 0 1 1 1 1 1 -1 2 3 3 3 3 5 5 5 9 6 7 7 8 10 9 9 9 7 8 7 8 9 9 9 9 10 12 6 6 10 9 7 6 6
4 3 2 2 2 1 1 2 2 2 2 1 1 1 1 1 1 1 1 0 -0 2 3 1 1 1 2 2 4 5 6 7 6 9 9 8 9 7 8 10 6 9 8 10 9 10 6 5 6 5 5 6 6 5
4 4 3 2 2 2 1 2 2 2 2 2 1 1 1 2 1 1 0 0 1 2 4 2 3 1 -0 0 -0 5 4 4 4 3 6 6 10 7 9 9 8 6 5 7 7 6 6 5 5 4 4 5 4 4
4 5 4 3 2 2 2 2 2 2 2 2 1 2 2 2 2 2 0 -0 1 3 6 4 0 2 -0 -0 1 1 2 1 2 3 5 7 8 5 7 7 7 6 6 7 6 5 5 5 4 4 3 3 4 3
4 5 5 4 3 2 2 2 2 2 2 2 2 1 2 2 2 1 -1 -1 -1 3 6 5 2 1 0 0 1 1 2 3 3 5 6 6 5 5 5 5 7 5 6 7 8 5 5 5 4 3 3 4 3 4
4 4 5 5 4 3 2 2 2 2 2 2 2 2 2 2 2 1 3 0 -0 0 4 6 2 3 1 1 2 2 2 2 3 3 4 3 4 4 7 8 5 4 3 4 5 3 4 3 3 2 3 3 3 3
4 4 4 5 5 4 2 2 2 2 2 2 3 3 2 2 1 2 3 2 2 -0 4 7 6 3 2 2 3 3 2 3 3 4 4 4 5 5 6 9 6 5 5 4 3 3 4 3 4 3 2 2 2 2
4 4 4 4 5 5 5 4 2 2 2 2 3 3 3 2 2 3 1 1 2 2 2 8 7 6 2 5 5 2 4 2 4 5 5 6 6 6 9 7 5 5 4 4 4 3 3 3 2 2 2 2 3 3
4 4 4 4 4 5 5 4 4 2 2 2 2 2 2 2 3 2 2 2 0 2 6 6 8 9 2 3 4 4 4 7 4 7 6 6 8 11 8 8 7 6 6 6 5 4 4 4 3 3 3 3 3 3
4 4 4 4 4 4 4 4 3 3 2 2 2 3 5 2 3 2 3 4 4 3 3 6 4 7 5 6 6 5 5 7 9 7 5 6 8 5 5 5 6 6 7 5 6 6 5 5 4 3 3 2 2 3
4 4 4 5 5 5 5 5 4 3 3 1 3 4 2 3 3 5 6 6 5 7 4 3 4 6 3 7 7 4 7 7 11 9 7 8 9 7 5 5 5 5 6 6 6 6 4 3 4 3 3 2 2 2
5 4 4 5 5 5 6 5 6 3 0 2 2 1 1 4 5 7 9 8 10 10 4 5 5 4 4 2 6 6 9 7 12 5 8 9 7 5 4 4 4 5 5 6 7 7 6 4 3 4 4 4 4 5
5 5 5 5 5 5 6 6 6 5 3 1 2 5 6 5 11 10 11 10 10 7 5 5 6 4 4 5 7 6 9 9 3 8 7 7 5 4 4 4 3 3 5 5 6 6 7 7 6 5 6 5 5 5
6 6 5 5 5 6 6 6 6 6 5 4 7 12 8 9 8 7 7 7 5 3 5 3 4 5 3 6 5 9 6 5 9 9 9 6 4 3 3 3 3 3 3 4 5 6 7 7 7 7 7 6 6 7
6 6 6 6 6 6 6 6 6 6 5 5 6 12 8 5 4 5 4 4 3 2 3 5 4 4 5 6 5 7 9 10 8 8 5 5 3 3 3 3 3 3 3 2 3 3 4 6 7 8 7 7 7 6
6 6 4 6 6 6 6 6 6 5 6 6 5 7 5 6 6 6 6 5 3 3 2 4 5 7 7 5 8 9 9 11 8 5 4 3 3 3 2 2 2 2 2 2 2 2 3 3 5 5 6 6 6 7
6 1 6 6 6 6 6 5 6 8 7 6 6 4 5 5 5 6 4 4 2 4 7 6 8 8 5 7 8 6 8 5 4 3 3 3 3 2 1 1 2 2 2 1 1 1 2 1 2 4 5 6 6 5
4 3 6 6 6 6 6 6 7 7 8 6 6 4 4 4 4 4 3 3 3 4 4 6 4 8 8 9 6 5 3 3 2 3 3 2 2 1 1 1 1 2 2 1 1 1 1 2 2 2 2 2 3 4
3 4 6 6 5 6 7 6 7 9 7 5 4 3 4 4 3 2 3 2 3 2 3 4 7 7 6 4 4 3 3 3 4 3 2 2 1 1 2 1 1 1 2 1 1 2 2 1 1 1 2 2 2 3
6 6 6 6 6 7 8 7 5 7 7 5 3 4 4 4 3 2 3 3 3 4 5 6 6 4 4 3 1 2 2 1 2 3 3 2 2 1 2 1 2 1 2 2 2 5 1 1 -0 -0 1 0 2 2
6 5 5 6 7 7 7 7 6 5 5 5 4 4 4 3 4 4 5 3 5 5 6 5 4 4 2 2 1 2 2 2 2 2 3 2 2 0 2 2 2 2 2 3 4 4 6 2 1 1 1 1 1 1
4 5 5 6 6 6 7 5 7 5 5 5 5 4 5 6 6 5 2 5 6 5 4 3 3 3 3 2 2 1 1 1 1 2 5 3 2 2 2 2 2 2 2 3 3 3 2 2 2 1 2 2 2 1
5 5 6 5 7 8 9 4 7 6 8 6 4 6 6 5 4 3 6 5 4 2 2 2 2 1 2 1 1 1 1 1 2 2 1 2 1 1 1 1 2 3 4 3 2 2 3 6 4 3 2 2 2 2
6 6 7 7 8 10 7 8 6 7 6 6 6 8 7 5 4 6 8 5 4 3 3 2 2 3 2 2 3 2 2 1 2 1 0 2 2 2 2 1 2 3 4 3 2 2 2 3 6 2 2 2 2 3
9 10 9 13 7 8 9 9 8 7 7 6 7 7 6 5 8 8 7 6 4 4 3 3 2 2 3 3 2 2 1 1 2 2 1 1 1 2 2 2 2 3 3 4 4 3 3 3 3 3 3 3 3 3
12 8 10 8 8 8 9 10 9 9 8 7 6 5 5 7 8 9 6 4 3 3 3 3 3 3 3 2 3 3 2 1 1 2 1 1 1 3 3 3 4 4 3 3 3 3 4 4 4 5 4 4 6 3
12 9 8 6 6 6 6 6 7 7 8 8 7 7 7 9 9 7 3 2 2 2 1 1 2 2 2 2 1 1 1 1 1 1 0 1 1 1 2 3 4 3 3 3 3 3 4 5 5 4 4 4 3 2
8 7 9 7 7 6 8 8 9 9 7 5 5 8 9 8 8 4 3 1 1 1 1 1 1 1 1 1 1 1 1 0 0 1 2 2 1 2 2 3 3 7 3 3 3 3 3 4 4 4 4 4 4 3
7 6 6 8 7 7 7 8 8 6 4 4 6 7 6 3 2 2 1 1 1 1 2 2 2 1 1 1 1 1 1 2 3 4 4 5 4 4 3 3 3 4 4 4 7 7 5 5 4 4 4 4 3 3
7 4 7 7 8 8 6 4 5 3 3 3 3 3 3 3 1 0 1 1 2 2 2 1 1 2 2 2 2 2 1 1 1 2 3 4 3 3 3 4 4 4 3 3 4 4 9 6 5 4 5 4 3 3
5 6 7 7 7 5 4 3 2 3 3 3 3 4 4 3 2 1 1 1 1 1 1 2 2 1 2 2 2 2 2 1 1 2 2 2 3 3 3 3 3 3 3 3 3 4 4 4 4 4 4 4 3 4
5 6 7 8 7 5 3 4 4 4 4 4 4 3 3 4 5 3 1 1 2 2 3 2 2 2 1 0 0 0 6 1 1 2 2 3 4 3 4 3 3 3 3 4 4 4 4 4 4 4 4 4 3 3
5 6 6 6 6 6 5 5 5 6 5 5 5 4 4 4 5 3 0 0 1 1 1 1 1 0 0 0 0 1 4 1 4 9 9 8 8 6 4 4 4 3 4 4 4 4 4 4 4 3 3 3 3 3